Beaufort, SC

11:20 AM EST on December 09, 2016 (GMT -0500)
Downtown Marina Docks | | Change Station

Elev 0 ft 32.43 °N, 80.67 °W | Updated 29 seconds ago

Clear
Clear
50.4 °F
Feels Like 50.4 °F
N
8.3
Wind Variable Wind from NNW

Today
High -- | Low -- °F
--% Chance of Precip.
Yesterday
High -- | Low -- °F
Precip. -- in
Pressure 30.41 in
Visibility 7.0 miles
Clouds Clear
Dew Point 27 °F
Humidity 40%
Rainfall 0.00 in
Snow Depth Not available.
7:13 AM 5:17 PM
Waxing Gibbous, 75% visible
METAR KARW 091615Z AUTO 01008KT 7SM CLR 08/M03 A3041 RMK AO2
Pressure 30.41 in
Visibility 7.0 miles
Clouds Clear
Dew Point 27 °F
Humidity 40%
Rainfall 0.00 in
Snow Depth Not available.
7:13 AM 5:17 PM
Waxing Gibbous, 75% visible
METAR KARW 091615Z AUTO 01008KT 7SM CLR 08/M03 A3041 RMK AO2

10-Day Weather Forecast

Almanac

Astronomy

Dec. 09, 2016 Rise Set
Actual Time
Civil Twilight
Nautical Twilight
Astronomical Twilight
Moon
Length of Visible Light
Length of Day
Tomorrow will be .
, % of the Moon is Illuminated

Today's Extremes

State Highs State Lows

Community

WunderPhotos

Upload Photos

1,956,462 photos uploaded!

WunderBlog® & News

Nearby

Air Quality

  Air Quality AQ Index Pollutant
Not available.

Snow Depth

Station Depth Elevation

Earthquake Activity

City Distance Mag. Time & Date
Minimum magnitude displayed is 2.5.

Coastal Water Temperatures

Place Temperature

Stations

Nearby Weather Stations

Station Location Temp. Windchill Dew Point Humidity Wind Precip. Elev Updated Type
                   

Watches & Warnings

There are currently no watches in effect.